Regional Weather Roundup
Issued by NWS

Home | Current Version | Previous Version | Text Only | Print | Product List | Glossary On
Versions: 1 2 3 4 5 6 7 8 9 10 11 12 13 14 15 16 17 18 19 20 21 22 23 24 25 26 27 28 29 30 31 32 33 34 35 36 37 38 39 40 41 42 43 44 45 46 47 48 49 50
895
ASUS43 KLMK 271510
RWRKY
KENTUCKY REGIONAL WEATHER ROUNDUP
NATIONAL WEATHER SERVICE LOUISVILLE KY
1000 AM EST MON FEB 27 2017

NOTE "FAIR" INDICATES FEW OR NO CLOUDS BELOW 12,000 FEET
WITH NO SIGNIFICANT WEATHER AND/OR OBSTRUCTIONS TO VISIBILITY.

KYZ001>023-026-027-061>063-070>075-271600-
WESTERN AND SOUTH CENTRAL KENTUCKY

CITY           SKY/WX    TMP DP  RH WIND       PRES   REMARKS
PADUCAH        CLOUDY    51  44  77 S6        30.15R
HENDERSON      CLOUDY    46  39  76 SE7       30.18R
OWENSBORO      CLOUDY    46  43  89 SE8       30.20R
HOPKINSVILLE   MOSUNNY   51  42  69 S10       30.18R
BOWLING GREEN  CLOUDY    48  44  86 NE3       30.23R
GLASGOW        CLOUDY    46  40  77 N5        30.23R
$$

KYZ024-025-028>034-038-045-046-053-271600-
NORTH CENTRAL KENTUCKY

CITY           SKY/WX    TMP DP  RH WIND       PRES   REMARKS
LOUISVILLE/SDF CLOUDY    45  41  86 SE6       30.23S
LOUISVILLE/LOU CLOUDY    45  41  86 SE5       30.24R
FORT KNOX      CLOUDY    43  43  99 E5        30.21R
$$

KYZ035>037-039>044-047>052-055>060-089>105-271600-
NORTHEAST KENTUCKY

CITY           SKY/WX    TMP DP  RH WIND       PRES   REMARKS
LEXINGTON      LGT RAIN  43  40  89 SE8       30.25F
COVINGTON      CLOUDY    42  40  92 SE6       30.24F
FRANKFORT      LGT RAIN  44  40  85 SE5       30.23F FOG
$$

KYZ054-064>069-076>088-106>120-271600-
SOUTHEAST KENTUCKY

CITY           SKY/WX    TMP DP  RH WIND       PRES   REMARKS
JACKSON        CLOUDY    45  24  43 VRB5      30.27F
LONDON         PTSUNNY   48  29  47 CALM      30.26S
SOMERSET       CLOUDY    45  27  49 CALM      30.27S
MIDDLESBORO    PTSUNNY   45  29  54 CALM      30.29S
MONTICELLO     CLOUDY    47  26  44 VRB7      30.27S
$$





USA.gov is the U.S. government's official web portal to all federal, state and local government web resources and services.